This is the latest recevied weather packets stored in our database for station/object SP1BMW-13. If no packets are shown the sender has not sent any weather packets the latest 1 day(s).
| Time | Temp. | Humidity | Pressure | Rain* | Wind** | Luminosity | Snow |
|---|---|---|---|---|---|---|---|
| 1778079773 | 10.56° C | 90% | 1006.6 hPa | 0 mm | 0.45 m/s, 49° | 159 W/m² | - |
| 1778079712 | 10.56° C | 90% | 1006.5 hPa | 0 mm | 0.45 m/s, 49° | 159 W/m² | - |
| 1778079472 | 10.56° C | 89% | 1006.4 hPa | 0 mm | 0.89 m/s, 7° | 166 W/m² | - |
| 1778079412 | 10.56° C | 89% | 1006.4 hPa | 0 mm | 0.89 m/s, 7° | 166 W/m² | - |
| 1778079172 | 10.56° C | 89% | 1006.5 hPa | 0 mm | 0.89 m/s, 25° | 162 W/m² | - |
| 1778078992 | 10.56° C | 89% | 1006.7 hPa | 0 mm | 1.79 m/s, 305° | 97 W/m² | - |
| 1778078932 | 10.56° C | 89% | 1006.5 hPa | 0 mm | 1.34 m/s, 29° | 103 W/m² | - |
| 1778078872 | 10.56° C | 89% | 1006.5 hPa | 0 mm | 1.34 m/s, 29° | 103 W/m² | - |
| 1778078814 | 10.56° C | 90% | 1006.6 hPa | 0 mm | 0.45 m/s, 344° | 117 W/m² | - |
| 1778078692 | 10.56° C | 89% | 1006.5 hPa | 0 mm | 0.89 m/s, 34° | 112 W/m² | - |
| 1778078632 | 10.56° C | 89% | 1006.6 hPa | 0 mm | 0.89 m/s, 34° | 112 W/m² | - |
| 1778078512 | 10.56° C | 90% | 1006.4 hPa | 0 mm | 0.45 m/s, 66° | 127 W/m² | - |
| 1778078272 | 10.56° C | 89% | 1006.3 hPa | 0 mm | 0.89 m/s, 19° | 118 W/m² | - |
| 1778078152 | 10.56° C | 89% | 1006.4 hPa | 0 mm | 1.79 m/s, 336° | 136 W/m² | - |
| 1778078032 | 10.56° C | 89% | 1006.2 hPa | 0 mm | 0.89 m/s, 322° | 138 W/m² | - |
| 1778077792 | 10.56° C | 90% | 1006.3 hPa | 0 mm | 1.34 m/s, 273° | 225 W/m² | - |
| 1778077612 | 10.56° C | 89% | 1006.2 hPa | 0 mm | 1.34 m/s, 339° | 192 W/m² | - |
| 1778077492 | 10.56° C | 91% | 1006.3 hPa | 0 mm | 1.34 m/s, 319° | 168 W/m² | - |
| 1778076952 | 10° C | 91% | 1006.2 hPa | 0 mm | 0.89 m/s, 286° | 178 W/m² | - |
| 1778076892 | 10° C | 91% | 1006.3 hPa | 0 mm | 0.89 m/s, 24° | 161 W/m² | - |
| 1778076832 | 10° C | 91% | 1006.3 hPa | 0 mm | 0 m/s | 133 W/m² | - |
| 1778076772 | 10° C | 91% | 1006.5 hPa | 0 mm | 1.79 m/s, 23° | 110 W/m² | - |
| 1778076712 | 10° C | 91% | 1006.4 hPa | 0 mm | 0.45 m/s, 333° | 109 W/m² | - |
| 1778076652 | 10° C | 90% | 1006.2 hPa | 0 mm | 0.45 m/s, 309° | 108 W/m² | - |
| 1778076592 | 10° C | 90% | 1006.3 hPa | 0 mm | 1.79 m/s, 13° | 98 W/m² | - |
* Rain latest hour (hover to see other rain measurements)
** Current wind speed in m/s (hover to see current wind gust speed)